| time (UTC) | temp F | wind direction | speed MPH | gust MPH | rain 1hr in | rain 24hr in | rain mn in | humidity % | barometer mb |
| 20260507193047 | 56 | 306 | 5.0 | 8.0 | 0.00 | 0.00 | 0.00 | 57 | 1012.5 |
| 20260507192545 | 56 | 292 | 4.0 | 14.0 | 0.00 | 0.00 | 0.00 | 54 | 1012.6 |
| 20260507192042 | 56 | 273 | 7.0 | 14.0 | 0.00 | 0.00 | 0.00 | 56 | 1012.8 |
| 20260507191542 | 56 | 303 | 5.0 | 12.0 | 0.00 | 0.00 | 0.00 | 59 | 1012.7 |
| 20260507191044 | 56 | 307 | 6.0 | 12.0 | 0.00 | 0.00 | 0.00 | 57 | 1012.7 |
| 20260507190542 | 56 | 299 | 7.0 | 12.0 | 0.00 | 0.00 | 0.00 | 58 | 1012.7 |
| 20260507190044 | 56 | 315 | 7.0 | 12.0 | 0.00 | 0.00 | 0.00 | 57 | 1012.5 |
| 20260507185541 | 57 | 304 | 5.0 | 11.0 | 0.00 | 0.00 | 0.00 | 55 | 1012.4 |
| 20260507185041 | 57 | 294 | 4.0 | 8.0 | 0.00 | 0.00 | 0.00 | 55 | 1012.4 |
| 20260507184541 | 57 | 304 | 5.0 | 8.0 | 0.00 | 0.00 | 0.00 | 59 | 1012.4 |
| 20260507184041 | 56 | 323 | 5.0 | 11.0 | 0.00 | 0.00 | 0.00 | 53 | 1012.5 |
| 20260507183540 | 57 | 290 | 5.0 | 11.0 | 0.00 | 0.00 | 0.00 | 54 | 1012.5 |
| 20260507183040 | 56 | 304 | 6.0 | 13.0 | 0.00 | 0.00 | 0.00 | 55 | 1012.8 |
| 20260507182538 | 55 | 285 | 6.0 | 13.0 | 0.00 | 0.00 | 0.00 | 56 | 1013.0 |
| 20260507182039 | 55 | 302 | 9.0 | 14.0 | 0.00 | 0.00 | 0.00 | 56 | 1012.9 |
| 20260507181537 | 55 | 276 | 7.0 | 23.0 | 0.00 | 0.00 | 0.00 | 55 | 1012.9 |
| 20260507181037 | 54 | 279 | 11.0 | 23.0 | 0.00 | 0.00 | 0.00 | 53 | 1013.1 |
| 20260507180538 | 55 | 276 | 14.0 | 21.0 | 0.00 | 0.00 | 0.00 | 52 | 1013.2 |
| 20260507180037 | 56 | 255 | 11.0 | 21.0 | 0.00 | 0.00 | 0.00 | 50 | 1013.2 |
| 20260507175537 | 57 | 234 | 14.0 | 21.0 | 0.00 | 0.00 | 0.00 | 47 | 1013.1 |
| 20260507175037 | 57 | 242 | 10.0 | 20.0 | 0.00 | 0.00 | 0.00 | 48 | 1013.0 |
| 20260507174548 | 57 | 253 | 13.0 | 18.0 | 0.00 | 0.00 | 0.00 | 46 | 1012.9 |
| 20260507174036 | 58 | 247 | 7.0 | 16.0 | 0.00 | 0.00 | 0.00 | 44 | 1012.9 |
| 20260507173536 | 58 | 257 | 8.0 | 15.0 | 0.00 | 0.00 | 0.00 | 43 | 1012.9 |
| 20260507173038 | 58 | 266 | 8.0 | 15.0 | 0.00 | 0.00 | 0.00 | 43 | 1012.9 |
| 20260507172541 | 58 | 267 | 7.0 | 19.0 | 0.00 | 0.00 | 0.00 | 40 | 1012.9 |
| 20260507172036 | 58 | 257 | 7.0 | 21.0 | 0.00 | 0.00 | 0.00 | 43 | 1013.0 |
| 20260507171535 | 60 | 236 | 14.0 | 21.0 | 0.00 | 0.00 | 0.00 | 41 | 1013.0 |
| 20260507171035 | 60 | 219 | 11.0 | 16.0 | 0.00 | 0.00 | 0.00 | 40 | 1012.9 |
| 20260507170536 | 60 | 227 | 9.0 | 18.0 | 0.00 | 0.00 | 0.00 | 40 | 1012.9 |
| 20260507170037 | 61 | 217 | 10.0 | 18.0 | 0.00 | 0.00 | 0.00 | 40 | 1013.0 |
| 20260507165533 | 61 | 206 | 11.0 | 16.0 | 0.00 | 0.00 | 0.00 | 38 | 1013.0 |
| 20260507165031 | 60 | 227 | 12.0 | 17.0 | 0.00 | 0.00 | 0.00 | 42 | 1013.0 |
| 20260507164531 | 59 | 235 | 9.0 | 17.0 | 0.00 | 0.00 | 0.00 | 45 | 1013.2 |
| 20260507164031 | 59 | 219 | 9.0 | 17.0 | 0.00 | 0.00 | 0.00 | 40 | 1013.3 |
| 20260507163532 | 59 | 197 | 10.0 | 17.0 | 0.00 | 0.00 | 0.00 | 44 | 1013.3 |
| 20260507163030 | 59 | 201 | 10.0 | 17.0 | 0.00 | 0.00 | 0.00 | 42 | 1013.4 |
| 20260507162528 | 60 | 247 | 9.0 | 19.0 | 0.00 | 0.00 | 0.00 | 43 | 1013.5 |
| 20260507162030 | 59 | 234 | 9.0 | 15.0 | 0.00 | 0.00 | 0.00 | 41 | 1013.5 |
| 20260507161530 | 59 | 222 | 7.0 | 19.0 | 0.00 | 0.00 | 0.00 | 41 | 1013.6 |
| 20260507161024 | 59 | 196 | 11.0 | 19.0 | 0.00 | 0.00 | 0.00 | 45 | 1013.7 |
| 20260507160524 | 59 | 219 | 9.0 | 14.0 | 0.00 | 0.00 | 0.00 | 45 | 1013.9 |
| 20260507160023 | 58 | 215 | 8.0 | 16.0 | 0.00 | 0.00 | 0.00 | 43 | 1013.9 |
| 20260507155523 | 58 | 229 | 11.0 | 16.0 | 0.00 | 0.00 | 0.00 | 47 | 1014.0 |
| 20260507155021 | 58 | 228 | 8.0 | 17.0 | 0.00 | 0.00 | 0.00 | 47 | 1014.0 |
| 20260507154522 | 57 | 222 | 11.0 | 17.0 | 0.00 | 0.00 | 0.00 | 44 | 1014.1 |
| 20260507154018 | 57 | 192 | 8.0 | 17.0 | 0.00 | 0.00 | 0.00 | 49 | 1014.1 |
| 20260507153518 | 57 | 202 | 9.0 | 17.0 | 0.00 | 0.00 | 0.00 | 47 | 1014.3 |
| 20260507153017 | 57 | 213 | 8.0 | 14.0 | 0.00 | 0.00 | 0.00 | 47 | 1014.4 |
| 20260507152516 | 57 | 217 | 6.0 | 14.0 | 0.00 | 0.00 | 0.00 | 47 | 1014.4 |
| 20260507152015 | 56 | 201 | 9.0 | 14.0 | 0.00 | 0.00 | 0.00 | 49 | 1014.3 |
| 20260507151514 | 56 | 211 | 8.0 | 14.0 | 0.00 | 0.00 | 0.00 | 49 | 1014.4 |
| 20260507151013 | 55 | 212 | 7.0 | 13.0 | 0.00 | 0.00 | 0.00 | 50 | 1014.4 |
| 20260507150515 | 55 | 205 | 7.0 | 13.0 | 0.00 | 0.00 | 0.00 | 49 | 1014.5 |
| 20260507150013 | 55 | 205 | 9.0 | 13.0 | 0.00 | 0.00 | 0.00 | 49 | 1014.6 |
| 20260507145512 | 55 | 215 | 8.0 | 12.0 | 0.00 | 0.00 | 0.00 | 49 | 1014.7 |
| 20260507145014 | 54 | 202 | 5.0 | 11.0 | 0.00 | 0.00 | 0.00 | 51 | 1014.7 |
| 20260507144509 | 54 | 216 | 8.0 | 11.0 | 0.00 | 0.00 | 0.00 | 48 | 1014.8 |
| 20260507144008 | 54 | 203 | 5.0 | 12.0 | 0.00 | 0.00 | 0.00 | 52 | 1014.7 |
| 20260507143505 | 53 | 226 | 6.0 | 12.0 | 0.00 | 0.00 | 0.00 | 52 | 1014.9 |
| 20260507143005 | 53 | 239 | 7.0 | 10.0 | 0.00 | 0.00 | 0.00 | 50 | 1015.0 |
| 20260507142504 | 53 | 227 | 4.0 | 10.0 | 0.00 | 0.00 | 0.00 | 52 | 1014.9 |
| 20260507142003 | 53 | 240 | 4.0 | 10.0 | 0.00 | 0.00 | 0.00 | 50 | 1014.9 |
| 20260507141502 | 52 | 202 | 5.0 | 9.0 | 0.00 | 0.00 | 0.00 | 51 | 1015.0 |
| 20260507141003 | 52 | 184 | 4.0 | 10.0 | 0.00 | 0.00 | 0.00 | 53 | 1015.1 |
| 20260507140601 | 51 | 175 | 5.0 | 10.0 | 0.00 | 0.00 | 0.00 | 58 | 1015.1 |
| 20260507140059 | 51 | 202 | 3.0 | 6.0 | 0.00 | 0.00 | 0.00 | 55 | 1015.2 |
| 20260507135559 | 51 | 170 | 4.0 | 9.0 | 0.00 | 0.00 | 0.00 | 57 | 1015.2 |
| 20260507135059 | 50 | 186 | 4.0 | 9.0 | 0.00 | 0.00 | 0.00 | 57 | 1015.2 |
| 20260507134600 | 50 | 227 | 5.0 | 9.0 | 0.00 | 0.00 | 0.00 | 58 | 1015.3 |
| 20260507134054 | 50 | 214 | 5.0 | 9.0 | 0.00 | 0.00 | 0.00 | 58 | 1015.4 |
| 20260507133553 | 49 | 194 | 5.0 | 9.0 | 0.00 | 0.00 | 0.00 | 61 | 1015.4 |
| 20260507133053 | 49 | 234 | 5.0 | 8.0 | 0.00 | 0.00 | 0.00 | 60 | 1015.4 |
| 20260507132550 | 48 | 195 | 4.0 | 7.0 | 0.00 | 0.00 | 0.00 | 64 | 1015.4 |
| 20260507132049 | 48 | 228 | 3.0 | 7.0 | 0.00 | 0.00 | 0.00 | 65 | 1015.5 |
| 20260507131549 | 47 | 206 | 4.0 | 6.0 | 0.00 | 0.00 | 0.00 | 65 | 1015.4 |
| 20260507131047 | 47 | 218 | 4.0 | 6.0 | 0.00 | 0.00 | 0.00 | 66 | 1015.4 |
| 20260507130545 | 46 | 184 | 3.0 | 5.0 | 0.00 | 0.00 | 0.00 | 66 | 1015.3 |
| 20260507130058 | 46 | 186 | 3.0 | 5.0 | 0.00 | 0.00 | 0.00 | 71 | 1015.4 |
| 20260507125543 | 45 | 203 | 2.0 | 4.0 | 0.00 | 0.00 | 0.00 | 74 | 1015.3 |
| 20260507125042 | 45 | 200 | 2.0 | 4.0 | 0.00 | 0.00 | 0.00 | 75 | 1015.3 |
| 20260507124552 | 44 | 165 | 2.0 | 4.0 | 0.00 | 0.00 | 0.00 | 75 | 1015.0 |
| 20260507124040 | 44 | 165 | 1.0 | 3.0 | 0.00 | 0.00 | 0.00 | 77 | 1015.0 |
| 20260507123539 | 43 | 168 | 1.0 | 3.0 | 0.00 | 0.00 | 0.00 | 80 | 1015.1 |
| 20260507123041 | 43 | 165 | 0.0 | 3.0 | 0.00 | 0.00 | 0.00 | 79 | 1015.1 |
| 20260507122536 | 42 | 165 | 0.0 | 3.0 | 0.00 | 0.00 | 0.00 | 83 | 1015.0 |
| 20260507122035 | 41 | 165 | 2.0 | 3.0 | 0.00 | 0.00 | 0.00 | 80 | 1015.0 |
| 20260507121538 | 40 | 165 | 1.0 | 3.0 | 0.00 | 0.00 | 0.00 | 84 | 1015.0 |
| 20260507121035 | 40 | 165 | 1.0 | 5.0 | 0.00 | 0.00 | 0.00 | 86 | 1015.1 |
| 20260507120540 | 39 | 165 | 3.0 | 5.0 | 0.00 | 0.00 | 0.00 | 85 | 1015.1 |
| 20260507120038 | 39 | 165 | 3.0 | 4.0 | 0.00 | 0.00 | 0.00 | 87 | 1015.1 |
| 20260507115534 | 38 | 147 | 2.0 | 4.0 | 0.00 | 0.00 | 0.00 | 88 | 1015.1 |
| 20260507115035 | 37 | 147 | 2.0 | 4.0 | 0.00 | 0.00 | 0.00 | 89 | 1015.1 |
| 20260507114534 | 37 | 148 | 2.0 | 4.0 | 0.00 | 0.00 | 0.00 | 89 | 1015.2 |
| 20260507114033 | 36 | 148 | 2.0 | 3.0 | 0.00 | 0.00 | 0.00 | 89 | 1015.1 |
| 20260507113534 | 36 | 148 | 2.0 | 3.0 | 0.00 | 0.00 | 0.00 | 89 | 1015.1 |
| 20260507113033 | 35 | 112 | 2.0 | 3.0 | 0.00 | 0.00 | 0.00 | 90 | 1015.0 |
| 20260507112532 | 35 | 112 | 0.0 | 0.0 | 0.00 | 0.00 | 0.00 | 90 | 1015.1 |
| 20260507112032 | 34 | 112 | 0.0 | 0.0 | 0.00 | 0.00 | 0.00 | 91 | 1015.0 |
| 20260507111532 | 34 | 49 | 0.0 | 0.0 | 0.00 | 0.00 | 0.00 | 91 | 1015.0 |
| 20260507111031 | 34 | 49 | 0.0 | 0.0 | 0.00 | 0.00 | 0.00 | 90 | 1015.0 |
| 20260507110531 | 33 | 49 | 0.0 | 1.0 | 0.00 | 0.00 | 0.00 | 90 | 1015.0 |
| 20260507110031 | 33 | 123 | 0.0 | 1.0 | 0.00 | 0.00 | 0.00 | 90 | 1015.0 |
| 20260507105530 | 33 | 79 | 0.0 | 1.0 | 0.00 | 0.00 | 0.00 | 90 | 1015.0 |
| 20260507105031 | 33 | 134 | 0.0 | 0.0 | 0.00 | 0.00 | 0.00 | 90 | 1015.0 |
| 20260507104531 | 33 | 134 | 0.0 | 0.0 | 0.00 | 0.00 | 0.00 | 89 | 1015.0 |
| 20260507104030 | 33 | 134 | 0.0 | 1.0 | 0.00 | 0.00 | 0.00 | 88 | 1015.0 |
| 20260507103529 | 33 | 134 | 0.0 | 2.0 | 0.00 | 0.00 | 0.00 | 88 | 1015.0 |
| 20260507103029 | 34 | 134 | 1.0 | 2.0 | 0.00 | 0.00 | 0.00 | 89 | 1015.0 |
| 20260507102529 | 34 | 134 | 1.0 | 3.0 | 0.00 | 0.00 | 0.00 | 89 | 1014.9 |
| 20260507102030 | 34 | 134 | 1.0 | 3.0 | 0.00 | 0.00 | 0.00 | 89 | 1015.0 |
| 20260507101538 | 34 | 134 | 2.0 | 3.0 | 0.00 | 0.00 | 0.00 | 89 | 1015.1 |
| 20260507101030 | 34 | 134 | 0.0 | 2.0 | 0.00 | 0.00 | 0.00 | 89 | 1015.1 |
| 20260507100527 | 34 | 134 | 0.0 | 0.0 | 0.00 | 0.00 | 0.00 | 89 | 1015.1 |
| 20260507100039 | 34 | 134 | 0.0 | 2.0 | 0.00 | 0.00 | 0.00 | 88 | 1015.0 |
| 20260507095526 | 34 | 134 | 0.0 | 3.0 | 0.00 | 0.00 | 0.00 | 88 | 1015.0 |
| 20260507095026 | 34 | 134 | 2.0 | 3.0 | 0.00 | 0.00 | 0.00 | 87 | 1014.9 |
| 20260507094524 | 34 | 134 | 2.0 | 3.0 | 0.00 | 0.00 | 0.00 | 87 | 1014.9 |
| 20260507094023 | 35 | 134 | 1.0 | 3.0 | 0.00 | 0.00 | 0.00 | 87 | 1015.1 |
| 20260507093527 | 35 | 134 | 1.0 | 3.0 | 0.00 | 0.00 | 0.00 | 88 | 1015.1 |
| 20260507093023 | 35 | 134 | 1.0 | 3.0 | 0.00 | 0.00 | 0.00 | 88 | 1015.1 |
| 20260507092523 | 35 | 134 | 2.0 | 3.0 | 0.00 | 0.00 | 0.00 | 88 | 1015.2 |
| 20260507092021 | 35 | 134 | 1.0 | 3.0 | 0.00 | 0.00 | 0.00 | 88 | 1015.2 |
| 20260507091522 | 35 | 134 | 2.0 | 3.0 | 0.00 | 0.00 | 0.00 | 89 | 1015.2 |
| 20260507091022 | 35 | 134 | 1.0 | 2.0 | 0.00 | 0.00 | 0.00 | 89 | 1015.3 |
| 20260507090522 | 35 | 134 | 1.0 | 2.0 | 0.00 | 0.00 | 0.00 | 88 | 1015.3 |
| 20260507090021 | 35 | 134 | 1.0 | 2.0 | 0.00 | 0.00 | 0.00 | 88 | 1015.2 |
| 20260507085521 | 35 | 134 | 1.0 | 3.0 | 0.00 | 0.00 | 0.00 | 89 | 1015.3 |
| 20260507085021 | 35 | 134 | 1.0 | 3.0 | 0.00 | 0.00 | 0.00 | 88 | 1015.3 |
| 20260507084520 | 36 | 134 | 1.0 | 2.0 | 0.00 | 0.00 | 0.00 | 88 | 1015.2 |
| 20260507084020 | 36 | 134 | 0.0 | 0.0 | 0.00 | 0.00 | 0.00 | 88 | 1015.2 |
| 20260507083520 | 36 | 134 | 0.0 | 0.0 | 0.00 | 0.00 | 0.00 | 87 | 1015.1 |
| 20260507083019 | 36 | 134 | 0.0 | 0.0 | 0.00 | 0.00 | 0.00 | 87 | 1015.2 |
| 20260507082522 | 36 | 134 | 0.0 | 0.0 | 0.00 | 0.00 | 0.00 | 86 | 1015.1 |
| 20260507082018 | 36 | 134 | 0.0 | 1.0 | 0.00 | 0.00 | 0.00 | 85 | 1015.0 |
| 20260507081520 | 36 | 134 | 0.0 | 1.0 | 0.00 | 0.00 | 0.00 | 85 | 1015.0 |
| 20260507081018 | 36 | 134 | 0.0 | 1.0 | 0.00 | 0.00 | 0.00 | 84 | 1015.0 |
| 20260507080518 | 36 | 134 | 0.0 | 2.0 | 0.00 | 0.00 | 0.00 | 85 | 1015.0 |
| 20260507080018 | 36 | 134 | 1.0 | 2.0 | 0.00 | 0.00 | 0.00 | 85 | 1015.0 |
| 20260507075517 | 36 | 134 | 1.0 | 3.0 | 0.00 | 0.00 | 0.00 | 85 | 1015.0 |
| 20260507075017 | 36 | 134 | 2.0 | 3.0 | 0.00 | 0.00 | 0.00 | 85 | 1015.1 |
| 20260507074517 | 36 | 134 | 2.0 | 3.0 | 0.00 | 0.00 | 0.00 | 86 | 1015.1 |
| 20260507074016 | 36 | 134 | 2.0 | 3.0 | 0.00 | 0.00 | 0.00 | 86 | 1015.0 |
| 20260507073520 | 35 | 134 | 2.0 | 4.0 | 0.00 | 0.00 | 0.00 | 87 | 1015.0 |
| 20260507073016 | 35 | 134 | 2.0 | 4.0 | 0.00 | 0.00 | 0.00 | 87 | 1015.1 |
| 20260507072515 | 35 | 134 | 2.0 | 4.0 | 0.00 | 0.00 | 0.00 | 87 | 1015.0 |
| 20260507072015 | 35 | 124 | 2.0 | 3.0 | 0.00 | 0.00 | 0.00 | 86 | 1015.0 |
| 20260507071514 | 35 | 124 | 2.0 | 3.0 | 0.00 | 0.00 | 0.00 | 86 | 1015.1 |
| 20260507071013 | 36 | 124 | 1.0 | 2.0 | 0.00 | 0.00 | 0.00 | 85 | 1015.1 |
| 20260507070512 | 36 | 124 | 1.0 | 3.0 | 0.00 | 0.00 | 0.00 | 85 | 1015.0 |
| 20260507070013 | 36 | 124 | 2.0 | 3.0 | 0.00 | 0.00 | 0.00 | 86 | 1015.0 |
| 20260507065510 | 36 | 124 | 2.0 | 4.0 | 0.00 | 0.00 | 0.00 | 85 | 1015.0 |
| 20260507065011 | 36 | 124 | 2.0 | 4.0 | 0.00 | 0.00 | 0.00 | 85 | 1015.1 |
| 20260507064510 | 36 | 124 | 2.0 | 3.0 | 0.00 | 0.00 | 0.00 | 85 | 1015.2 |
| 20260507064010 | 36 | 124 | 2.0 | 3.0 | 0.00 | 0.00 | 0.00 | 84 | 1015.2 |
| 20260507063507 | 37 | 272 | 0.0 | 0.0 | 0.00 | 0.00 | 0.00 | 84 | 1015.3 |
| 20260507063005 | 37 | 272 | 0.0 | 0.0 | 0.00 | 0.00 | 0.00 | 83 | 1015.3 |
| 20260507062506 | 37 | 272 | 0.0 | 0.0 | 0.00 | 0.00 | 0.00 | 83 | 1015.3 |
| 20260507062004 | 37 | 272 | 0.0 | 0.0 | 0.00 | 0.00 | 0.00 | 82 | 1015.3 |
| 20260507061504 | 38 | 272 | 0.0 | 0.0 | 0.00 | 0.00 | 0.00 | 80 | 1015.3 |
| 20260507061001 | 38 | 272 | 0.0 | 0.0 | 0.00 | 0.00 | 0.00 | 79 | 1015.2 |
| 20260507060501 | 38 | 272 | 0.0 | 0.0 | 0.00 | 0.00 | 0.00 | 77 | 1015.2 |
| 20260507060100 | 39 | 272 | 0.0 | 0.0 | 0.00 | 0.00 | 0.00 | 76 | 1015.2 |
| 20260507055559 | 40 | 272 | 0.0 | 0.0 | 0.00 | 0.00 | 0.00 | 73 | 1015.2 |
| 20260507055059 | 39 | 272 | 0.0 | 0.0 | 0.00 | 0.00 | 0.00 | 72 | 1015.3 |
| 20260507054558 | 40 | 272 | 0.0 | 0.0 | 0.00 | 0.00 | 0.00 | 74 | 1015.3 |
| 20260507054057 | 40 | 272 | 0.0 | 0.0 | 0.00 | 0.00 | 0.00 | 74 | 1015.3 |
| 20260507053556 | 40 | 272 | 0.0 | 0.0 | 0.00 | 0.00 | 0.00 | 69 | 1015.3 |
| 20260507053056 | 41 | 272 | 0.0 | 0.0 | 0.00 | 0.00 | 0.00 | 68 | 1015.3 |
| 20260507052559 | 41 | 272 | 0.0 | 0.0 | 0.00 | 0.00 | 0.00 | 68 | 1015.3 |
| 20260507052054 | 41 | 272 | 0.0 | 0.0 | 0.00 | 0.00 | 0.00 | 69 | 1015.3 |
| 20260507051555 | 40 | 272 | 0.0 | 0.0 | 0.00 | 0.00 | 0.00 | 69 | 1015.2 |
| 20260507051055 | 40 | 272 | 0.0 | 0.0 | 0.00 | 0.00 | 0.00 | 69 | 1015.2 |
| 20260507050557 | 40 | 272 | 0.0 | 0.0 | 0.00 | 0.00 | 0.00 | 69 | 1015.3 |
| 20260507050052 | 40 | 272 | 0.0 | 0.0 | 0.00 | 0.00 | 0.00 | 70 | 1015.1 |
| 20260507045555 | 40 | 272 | 0.0 | 0.0 | 0.00 | 0.00 | 0.00 | 69 | 1015.2 |
| 20260507045052 | 41 | 272 | 0.0 | 0.0 | 0.00 | 0.00 | 0.00 | 69 | 1015.2 |
| 20260507044552 | 41 | 272 | 0.0 | 0.0 | 0.00 | 0.00 | 0.00 | 68 | 1015.1 |
| 20260507044053 | 42 | 272 | 0.0 | 0.0 | 0.00 | 0.00 | 0.00 | 67 | 1015.1 |
| 20260507043551 | 42 | 272 | 0.0 | 0.0 | 0.00 | 0.00 | 0.00 | 65 | 1015.1 |
| 20260507043050 | 42 | 272 | 0.0 | 0.0 | 0.00 | 0.00 | 0.00 | 66 | 1015.1 |
| 20260507042551 | 42 | 272 | 0.0 | 0.0 | 0.00 | 0.00 | 0.00 | 66 | 1015.1 |
| 20260507042050 | 42 | 272 | 0.0 | 1.0 | 0.00 | 0.00 | 0.00 | 66 | 1015.1 |
| 20260507041551 | 42 | 272 | 0.0 | 2.0 | 0.00 | 0.00 | 0.00 | 66 | 1015.1 |
| 20260507041050 | 43 | 272 | 0.0 | 2.0 | 0.00 | 0.00 | 0.00 | 67 | 1015.2 |
| 20260507040550 | 43 | 272 | 1.0 | 2.0 | 0.00 | 0.00 | 0.00 | 67 | 1015.2 |
| 20260507040050 | 43 | 271 | 1.0 | 3.0 | 0.00 | 0.00 | 0.00 | 65 | 1015.1 |
| 20260507035549 | 43 | 271 | 1.0 | 3.0 | 0.00 | 0.00 | 0.00 | 65 | 1015.1 |
| 20260507035050 | 43 | 271 | 1.0 | 4.0 | 0.00 | 0.00 | 0.00 | 63 | 1015.2 |
| 20260507034549 | 43 | 288 | 2.0 | 4.0 | 0.00 | 0.00 | 0.00 | 63 | 1015.2 |
| 20260507034049 | 43 | 296 | 1.0 | 3.0 | 0.00 | 0.00 | 0.00 | 68 | 1015.2 |
| 20260507033549 | 43 | 302 | 0.0 | 3.0 | 0.00 | 0.00 | 0.00 | 68 | 1015.2 |
| 20260507033049 | 44 | 302 | 1.0 | 4.0 | 0.00 | 0.00 | 0.00 | 65 | 1015.2 |
| 20260507032548 | 44 | 302 | 2.0 | 4.0 | 0.00 | 0.00 | 0.00 | 63 | 1015.3 |
| 20260507032050 | 44 | 292 | 2.0 | 4.0 | 0.00 | 0.00 | 0.00 | 64 | 1015.3 |
| 20260507031550 | 45 | 298 | 1.0 | 4.0 | 0.00 | 0.00 | 0.00 | 65 | 1015.3 |
| 20260507031052 | 45 | 298 | 1.0 | 4.0 | 0.00 | 0.00 | 0.00 | 63 | 1015.3 |
| 20260507030548 | 46 | 293 | 2.0 | 4.0 | 0.00 | 0.00 | 0.00 | 59 | 1015.3 |
| 20260507030048 | 46 | 291 | 2.0 | 4.0 | 0.00 | 0.00 | 0.00 | 59 | 1015.2 |
| 20260507025549 | 46 | 290 | 2.0 | 4.0 | 0.00 | 0.00 | 0.00 | 58 | 1015.3 |
| 20260507025050 | 46 | 288 | 1.0 | 4.0 | 0.00 | 0.00 | 0.00 | 57 | 1015.2 |
| 20260507024559 | 46 | 294 | 1.0 | 4.0 | 0.00 | 0.00 | 0.00 | 59 | 1015.1 |
| 20260507024047 | 46 | 273 | 2.0 | 5.0 | 0.00 | 0.00 | 0.00 | 56 | 1015.2 |
| 20260507023552 | 46 | 267 | 2.0 | 5.0 | 0.00 | 0.00 | 0.00 | 57 | 1015.1 |
| 20260507023045 | 46 | 278 | 2.0 | 4.0 | 0.00 | 0.00 | 0.00 | 58 | 1015.0 |
| 20260507022549 | 46 | 270 | 2.0 | 4.0 | 0.00 | 0.00 | 0.00 | 58 | 1014.9 |
| 20260507022043 | 46 | 266 | 1.0 | 4.0 | 0.00 | 0.00 | 0.00 | 58 | 1014.8 |
| 20260507021544 | 47 | 291 | 0.0 | 3.0 | 0.00 | 0.00 | 0.00 | 57 | 1014.8 |
| 20260507021042 | 47 | 291 | 1.0 | 4.0 | 0.00 | 0.00 | 0.00 | 59 | 1014.7 |
| 20260507020542 | 47 | 291 | 0.0 | 4.0 | 0.00 | 0.00 | 0.00 | 60 | 1014.6 |
| 20260507020059 | 47 | 289 | 2.0 | 5.0 | 0.00 | 0.00 | 0.00 | 59 | 1014.6 |
| 20260507015540 | 47 | 288 | 3.0 | 5.0 | 0.00 | 0.00 | 0.00 | 59 | 1014.6 |
| 20260507015040 | 46 | 282 | 2.0 | 4.0 | 0.00 | 0.00 | 0.00 | 62 | 1014.4 |
| 20260507014545 | 46 | 305 | 2.0 | 4.0 | 0.00 | 0.00 | 0.00 | 63 | 1014.3 |
| 20260507014039 | 47 | 305 | 2.0 | 6.0 | 0.00 | 0.00 | 0.00 | 62 | 1014.2 |
| 20260507013539 | 47 | 295 | 3.0 | 6.0 | 0.00 | 0.00 | 0.00 | 59 | 1014.2 |
| 20260507013045 | 48 | 295 | 3.0 | 8.0 | 0.00 | 0.00 | 0.00 | 60 | 1014.2 |
| 20260507012538 | 48 | 303 | 4.0 | 8.0 | 0.00 | 0.00 | 0.00 | 59 | 1014.2 |
| 20260507012042 | 48 | 300 | 5.0 | 8.0 | 0.00 | 0.00 | 0.00 | 58 | 1014.2 |
| 20260507011537 | 49 | 295 | 4.0 | 9.0 | 0.00 | 0.00 | 0.00 | 55 | 1014.2 |
| 20260507011037 | 49 | 324 | 6.0 | 12.0 | 0.00 | 0.00 | 0.00 | 54 | 1014.1 |
| 20260507010540 | 50 | 300 | 7.0 | 12.0 | 0.00 | 0.00 | 0.00 | 51 | 1014.1 |
| 20260507010036 | 50 | 308 | 6.0 | 10.0 | 0.00 | 0.00 | 0.00 | 53 | 1014.1 |
| 20260507005537 | 50 | 302 | 6.0 | 11.0 | 0.00 | 0.00 | 0.00 | 54 | 1014.0 |
| 20260507005036 | 51 | 303 | 7.0 | 13.0 | 0.00 | 0.00 | 0.00 | 52 | 1014.0 |
| 20260507004541 | 51 | 291 | 9.0 | 13.0 | 0.00 | 0.00 | 0.00 | 50 | 1013.9 |
| 20260507004036 | 51 | 309 | 8.0 | 15.0 | 0.00 | 0.00 | 0.00 | 50 | 1013.9 |
| 20260507003535 | 52 | 276 | 8.0 | 19.0 | 0.00 | 0.00 | 0.00 | 48 | 1013.9 |
| 20260507003035 | 53 | 298 | 11.0 | 19.0 | 0.00 | 0.00 | 0.00 | 48 | 1013.8 |
| 20260507002535 | 53 | 297 | 10.0 | 17.0 | 0.00 | 0.00 | 0.00 | 47 | 1013.9 |
| 20260507002035 | 53 | 301 | 8.0 | 13.0 | 0.00 | 0.00 | 0.00 | 48 | 1013.8 |
| 20260507001535 | 53 | 282 | 9.0 | 17.0 | 0.00 | 0.00 | 0.00 | 46 | 1013.7 |
| 20260507001034 | 53 | 278 | 10.0 | 18.0 | 0.00 | 0.00 | 0.00 | 45 | 1013.7 |
| 20260507000535 | 54 | 309 | 8.0 | 18.0 | 0.00 | 0.00 | 0.00 | 48 | 1013.8 |
| 20260507000035 | 54 | 292 | 10.0 | 15.0 | 0.00 | 0.00 | 0.00 | 44 | 1013.7 |
| 20260506235535 | 54 | 263 | 10.0 | 18.0 | 0.00 | 0.00 | 0.00 | 42 | 1013.6 |
| 20260506235037 | 55 | 271 | 10.0 | 17.0 | 0.00 | 0.00 | 0.00 | 47 | 1013.5 |
| 20260506234537 | 55 | 306 | 9.0 | 20.0 | 0.00 | 0.00 | 0.00 | 45 | 1013.4 |
| 20260506234034 | 55 | 309 | 11.0 | 20.0 | 0.00 | 0.00 | 0.00 | 45 | 1013.4 |
| 20260506233534 | 55 | 309 | 10.0 | 18.0 | 0.00 | 0.00 | 0.00 | 43 | 1013.3 |
| 20260506233034 | 55 | 277 | 8.0 | 14.0 | 0.00 | 0.00 | 0.00 | 45 | 1013.3 |
| 20260506232533 | 55 | 290 | 10.0 | 14.0 | 0.00 | 0.00 | 0.00 | 44 | 1013.3 |
| 20260506232034 | 55 | 256 | 6.0 | 16.0 | 0.00 | 0.00 | 0.00 | 45 | 1013.4 |
| 20260506231545 | 55 | 296 | 9.0 | 16.0 | 0.00 | 0.00 | 0.00 | 42 | 1013.4 |
| 20260506231033 | 55 | 255 | 5.0 | 14.0 | 0.00 | 0.00 | 0.00 | 44 | 1013.4 |
| 20260506230533 | 55 | 288 | 8.0 | 14.0 | 0.00 | 0.00 | 0.00 | 47 | 1013.4 |
| 20260506230045 | 55 | 313 | 9.0 | 15.0 | 0.00 | 0.00 | 0.00 | 44 | 1013.2 |
| 20260506225535 | 56 | 287 | 10.0 | 15.0 | 0.00 | 0.00 | 0.00 | 44 | 1013.2 |
| 20260506225033 | 56 | 311 | 9.0 | 15.0 | 0.00 | 0.00 | 0.00 | 43 | 1013.2 |
| 20260506224532 | 56 | 271 | 7.0 | 15.0 | 0.00 | 0.00 | 0.00 | 41 | 1013.3 |
| 20260506224034 | 56 | 291 | 9.0 | 15.0 | 0.00 | 0.00 | 0.00 | 44 | 1013.2 |
| 20260506223534 | 56 | 304 | 6.0 | 14.0 | 0.00 | 0.00 | 0.00 | 44 | 1013.2 |
| 20260506223045 | 56 | 280 | 8.0 | 15.0 | 0.00 | 0.00 | 0.00 | 41 | 1013.2 |
| 20260506222532 | 56 | 283 | 10.0 | 15.0 | 0.00 | 0.00 | 0.00 | 40 | 1013.2 |
| 20260506222031 | 57 | 293 | 9.0 | 16.0 | 0.00 | 0.00 | 0.00 | 40 | 1013.2 |
| 20260506221532 | 56 | 259 | 11.0 | 16.0 | 0.00 | 0.00 | 0.00 | 41 | 1013.2 |
| 20260506221033 | 57 | 274 | 11.0 | 16.0 | 0.00 | 0.00 | 0.00 | 45 | 1013.2 |
| 20260506220535 | 56 | 270 | 9.0 | 20.0 | 0.00 | 0.00 | 0.00 | 42 | 1013.3 |
| 20260506220032 | 56 | 281 | 8.0 | 20.0 | 0.00 | 0.00 | 0.00 | 40 | 1013.2 |
| 20260506215536 | 57 | 290 | 8.0 | 16.0 | 0.00 | 0.00 | 0.00 | 44 | 1013.2 |
| 20260506215030 | 57 | 277 | 11.0 | 16.0 | 0.00 | 0.00 | 0.00 | 38 | 1013.1 |
| 20260506214530 | 57 | 242 | 10.0 | 16.0 | 0.00 | 0.00 | 0.00 | 39 | 1013.1 |
| 20260506214030 | 58 | 286 | 10.0 | 18.0 | 0.00 | 0.00 | 0.00 | 41 | 1013.1 |
| 20260506213532 | 58 | 248 | 11.0 | 18.0 | 0.00 | 0.00 | 0.00 | 40 | 1013.1 |
| 20260506213031 | 58 | 282 | 9.0 | 19.0 | 0.00 | 0.00 | 0.00 | 41 | 1013.0 |
| 20260506212529 | 57 | 266 | 8.0 | 19.0 | 0.00 | 0.00 | 0.00 | 43 | 1013.0 |
| 20260506212029 | 58 | 271 | 8.0 | 19.0 | 0.00 | 0.00 | 0.00 | 45 | 1013.0 |
| 20260506211539 | 57 | 317 | 9.0 | 19.0 | 0.00 | 0.00 | 0.00 | 46 | 1013.1 |
| 20260506211029 | 57 | 250 | 9.0 | 16.0 | 0.00 | 0.00 | 0.00 | 43 | 1012.9 |
| 20260506210529 | 57 | 257 | 8.0 | 16.0 | 0.00 | 0.00 | 0.00 | 47 | 1012.9 |
| 20260506210033 | 56 | 253 | 6.0 | 14.0 | 0.00 | 0.00 | 0.00 | 43 | 1013.0 |
| 20260506205529 | 56 | 290 | 8.0 | 14.0 | 0.00 | 0.00 | 0.00 | 44 | 1013.1 |
| 20260506205028 | 57 | 284 | 9.0 | 15.0 | 0.00 | 0.00 | 0.00 | 47 | 1013.1 |
| 20260506204529 | 57 | 281 | 7.0 | 17.0 | 0.00 | 0.00 | 0.00 | 43 | 1013.2 |
| 20260506204027 | 57 | 262 | 11.0 | 17.0 | 0.00 | 0.00 | 0.00 | 42 | 1013.2 |
| 20260506203527 | 57 | 298 | 7.0 | 18.0 | 0.00 | 0.00 | 0.00 | 47 | 1013.2 |
| 20260506203030 | 56 | 286 | 8.0 | 18.0 | 0.00 | 0.00 | 0.00 | 46 | 1013.2 |
| 20260506202527 | 57 | 261 | 9.0 | 15.0 | 0.00 | 0.00 | 0.00 | 45 | 1013.1 |
| 20260506202027 | 58 | 273 | 9.0 | 16.0 | 0.00 | 0.00 | 0.00 | 44 | 1013.2 |
| 20260506201534 | 57 | 267 | 9.0 | 16.0 | 0.00 | 0.00 | 0.00 | 48 | 1013.3 |
| 20260506201029 | 57 | 270 | 9.0 | 18.0 | 0.00 | 0.00 | 0.00 | 48 | 1013.3 |
| 20260506200525 | 57 | 279 | 8.0 | 18.0 | 0.00 | 0.00 | 0.00 | 41 | 1013.4 |
| 20260506200026 | 57 | 269 | 11.0 | 17.0 | 0.00 | 0.00 | 0.00 | 45 | 1013.5 |
| 20260506195525 | 56 | 237 | 7.0 | 15.0 | 0.00 | 0.00 | 0.00 | 48 | 1013.5 |
| 20260506195025 | 56 | 254 | 10.0 | 17.0 | 0.00 | 0.00 | 0.00 | 46 | 1013.6 |
| 20260506194529 | 56 | 279 | 9.0 | 17.0 | 0.00 | 0.00 | 0.00 | 45 | 1013.6 |
| 20260506194027 | 56 | 297 | 8.0 | 15.0 | 0.00 | 0.00 | 0.00 | 46 | 1013.6 |
| 20260506193525 | 56 | 266 | 7.0 | 20.0 | 0.00 | 0.00 | 0.00 | 47 | 1013.6 |